CZ-6A DEB

Satellite information

Favourite Embed

Satellite Type and Status

DEBRISIN ORBIT

Key statistics

Satellite CZ-6A DEB at a glance.

Uptime

438

Days in orbit

Revolutions

≈ 14.3

Per day

Orbit

LEO

Low Earth Orbit

Inclination

89.0

Latest

Satellite identification and parameters

Extended collection of information and parameters for CZ-6A DEB.

Object identification

Identified? True

Debris? True

Object name: CZ-6A DEB

International designator: 2024-140UH

Object number (NORAD): 61320

Object ID (CCSDS): 61320

Country: PEOPLES REPUBLIC OF CHINA (PRC)

Current information (Y/N): Y

RCS size: SMALL

Orbital parameters

Period: 100.995 minutes

Inclination: 88.9975 deg

SMA: 7183.884 km

Apoapsis: 815.586 km

Periapsis: 795.912 km

RAAN: 301.8002 deg

Eccentricy: 0.00136936

Argument of periapsis: 234.4743 deg

Mean anomaly: 125.5174 deg

Mean motion: 14.25816998 rev/day

Mean motion (dot): 0.00000654 rev/day2

B* drag term: 0.00026884096 1/REarth

Two-line elements (TLE)

Creation date: Oct. 16, 2025, 6:34 p.m.

Reference frame: TEME

Reference center: EARTH

Epoch: Oct. 16, 2025, 12:42 a.m. UTC

TLE line 0: 0 CZ-6A DEB

TLE line 1: 1 61320U 24140UH 25289.02962256 .00000654 00000-0 26884-3 0 9997

TLE line 2: 2 61320 88.9975 301.8002 0013694 234.4743 125.5174 14.25816998 58779

Live tracking on map

Real-time ground track for satellite CZ-6A DEB.

In-orbit conjunctions

A list of the most updated potential collisions computed for object CZ-6A DEB.

Target Orbit TCA Probability of collision Miss distance Type
FENGYUN 1C DEB SSO 2025-07-19 23:04:08 0.0005748003 114.0 (m) DEBRIS
FENGYUN 1C DEB SSO 2025-05-26 17:18:26 0.0002544389 31.0 (m) DEBRIS
FENGYUN 1C DEB SSO 2025-02-15 01:26:16 0.0001723409 588.0 (m) DEBRIS
CZ-6A DEB SSO 2024-12-30 16:40:28 0.0001282573 996.0 (m) DEBRIS
FENGYUN 1C DEB SSO 2024-11-30 09:12:28 0.0001904893 480.0 (m) DEBRIS

Associated space launch

18 Low Earth Orbit communication satellites with Ku, Q and V band payloads for the G60 constellation operated by Shanghai Spacecom Satellite Technology (SSST) with funding backed by the Shanghai local government. Initial constellation will consist of 1296 satellites by 2027 with long term plans to expand it to 12000 satellites.

CZ-6A DEB was lifted into orbit during the mission ‘Long March 6A | G60 Polar Group 01’, on board a Long March 6A space rocket.

The launch took place on Aug. 6, 2024, 6:42 a.m. from Launch Complex 9A.

For more information about the launch, click the button.

Launch to space Long March 6A | G60 Polar Group 01
Long March 6A | G60 Polar Group 01

Agency: N/A

Status: Launch Successful

Launch date: Aug. 6, 2024, 6:42 a.m. UTC

Rocket: Long March 6A

Launch pad: Launch Complex 9A

Location: Taiyuan Satellite Launch Center, People's Republic of China

...

Latest news about this satellite

News about space launch
Brightness of first Chinese broadband constellation satellites alarms astronomers

The first satellites of a Chinese broadband constellation are significantly brighter than those of Western systems, posing a new challenge for astronomers.

News about space launch
Chinese rocket stage breaks up into cloud of more than 700 pieces of space debris

HELSINKI — A Chinese Long March 6A rocket’s upper stage has fragmented into a cloud of over 700 pieces of space debris, adding to concerns about long-term orbital safety. China […]

News about space launch
China's Thousand Sails Megaconstellation Kicks Off with Dangerous Debris Field

China's Thousand Sails Megaconstellation Kicks Off with Dangerous Debris Field


Newsletter sign-up

Weekly statistics, charts and insights to help you stay on top of the space industry.